Valparaiso, FL

8:05 AM CDT on September 26, 2017 (GMT -0500)
Eglin Air Force Base

Weather History for KVPS - December, 2013

Change the Weather History Date:

Saturday, December 28, 2013

  Actual Average Record
Temperature  
Mean Temperature 52 °F -  
Max Temperature 57 °F 64 °F 77 °F (1949)
Min Temperature 48 °F 41 °F 22 °F (2010)
Degree Days  
Heating Degree Days 12    
Growing Degree Days 2 (Base 50)    
Moisture  
Dew Point 52 °F    
Average Humidity 94    
Maximum Humidity 100    
Minimum Humidity 67    
Precipitation  
Precipitation 2.57 in - - ()
Sea Level Pressure  
Sea Level Pressure 30.05 in    
Wind  
Wind Speed 9 mph (ENE)    
Max Wind Speed 17 mph    
Max Gust Speed 25 mph    
Visibility 6 miles    
Events Fog , Rain , Thunderstorm    
Averages and records for this station are not official NWS values.
T = Trace of Precipitation, MM = Missing Value Source: NWS Daily Summary

Daily Weather History Graph

Daily Weather History Graph

Search for Another Location

Airport or City:

Trip Planner

Search our weather history database for the weather conditions in past years. The results will help you decide how hot, cold, wet, or windy it might be!

Date:

Astronomy

Dec. 28, 2013 Rise Set
Actual Time 6:42 AM CST 4:53 PM CST
Civil Twilight 6:15 AM CST 5:20 PM CST
Nautical Twilight 5:45 AM CST 5:50 PM CST
Astronomical Twilight 5:16 AM CST 6:19 PM CST
Moon 2:27 AM CST (12/28) 1:36 PM CST (12/28)
Length of Visible Light 11h 04m
Length of Day
10h 11m
Waning Crescent, 19% of the Moon is Illuminated
Dec 28
Waning Crescent
Jan 1
New
Jan 7
First Quarter
Jan 15
Full
Jan 23
Last Quarter

Hourly Weather History & Observations

Time (CST) Temp. Dew Point Humidity Pressure Visibility Wind Dir Wind Speed Gust Speed Precip Events Conditions
12:06 AM 53.6 °F 42.8 °F 67% 30.27 in 10.0 mi ENE 8.1 mph - N/A Rain Light Rain
12:55 AM 50.4 °F 46.4 °F 86% 30.28 in 10.0 mi NE 6.9 mph - 0.00 in   Light Drizzle
1:30 AM 50.0 °F 46.4 °F 87% 30.26 in 10.0 mi NNE 4.6 mph - N/A   Overcast
1:51 AM 51.8 °F 46.4 °F 82% 30.24 in 6.0 mi ENE 6.9 mph - N/A Rain Light Rain
1:55 AM 50.5 °F 46.4 °F 86% 30.26 in 5.0 mi ENE 6.9 mph - 0.03 in Rain Light Rain
2:55 AM 49.1 °F 47.1 °F 93% 30.24 in 4.0 mi NE 9.2 mph - 0.06 in Rain Light Rain
3:47 AM 48.2 °F 46.4 °F 93% 30.21 in 10.0 mi NE 10.4 mph - N/A   Overcast
3:55 AM 48.4 °F 46.8 °F 94% 30.22 in 10.0 mi NE 11.5 mph - 0.02 in   Mostly Cloudy
4:55 AM 48.9 °F 46.4 °F 91% 30.22 in 10.0 mi NE 11.5 mph - N/A   Overcast
5:55 AM 49.3 °F 46.2 °F 89% 30.22 in 10.0 mi ENE 10.4 mph - N/A   Overcast
6:55 AM 49.8 °F 45.9 °F 86% 30.21 in 7.0 mi ENE 10.4 mph - 0.00 in Rain Light Rain
7:14 AM 50.0 °F 46.4 °F 87% 30.19 in 10.0 mi ENE 11.5 mph - N/A   Overcast
7:42 AM 50.0 °F 46.4 °F 87% 30.19 in 7.0 mi ENE 9.2 mph - N/A Rain Light Rain
7:55 AM 50.4 °F 46.0 °F 85% 30.22 in 10.0 mi ENE 9.2 mph - 0.00 in   Overcast
8:25 AM 50.0 °F 46.4 °F 87% 30.19 in 10.0 mi East 9.2 mph - N/A Rain Light Rain
8:55 AM 51.1 °F 46.4 °F 84% 30.22 in 10.0 mi ENE 10.4 mph - 0.01 in Rain Light Rain
9:55 AM 51.1 °F 47.3 °F 87% 30.21 in 7.0 mi ENE 9.2 mph - 0.01 in Rain Light Rain
10:30 AM 51.8 °F 48.2 °F 88% 30.16 in 7.0 mi ENE 10.4 mph - N/A   Overcast
10:55 AM 52.2 °F 48.4 °F 87% 30.16 in 10.0 mi ENE 10.4 mph - 0.00 in   Overcast
11:09 AM 51.8 °F 48.2 °F 88% 30.13 in 6.0 mi ENE 8.1 mph - N/A Rain Light Rain
11:30 AM 53.6 °F 48.2 °F 82% 30.12 in 7.0 mi ENE 8.1 mph - N/A   Overcast
11:42 AM 53.6 °F 50.0 °F 88% 30.09 in 2.0 mi ENE 11.5 mph - N/A Rain Rain
11:46 AM 53.6 °F 50.0 °F 88% 30.10 in 2.5 mi ENE 9.2 mph - N/A Rain Rain
11:56 AM 52.3 °F 50.4 °F 93% 30.11 in 4.0 mi ENE 9.2 mph - 0.06 in Rain Light Rain
12:09 PM 53.6 °F 50.0 °F 88% 30.08 in 7.0 mi ENE 10.4 mph - N/A   Overcast
12:18 PM 53.6 °F 50.0 °F 88% 30.06 in 6.0 mi ENE 10.4 mph - N/A Rain Light Rain
12:55 PM 53.1 °F 51.6 °F 95% 30.06 in 6.0 mi ENE 9.2 mph - 0.02 in Rain Light Rain
1:55 PM 53.2 °F 52.2 °F 96% 30.01 in 5.0 mi ENE 11.5 mph - 0.01 in Rain Light Rain
2:35 PM 53.6 °F 51.8 °F 94% 29.97 in 6.0 mi ENE 9.2 mph - N/A   Overcast
2:52 PM 53.6 °F 51.8 °F 94% 29.97 in 5.0 mi ENE 10.4 mph - N/A Rain Light Rain
2:55 PM 53.8 °F 52.7 °F 96% 29.99 in 5.0 mi ENE 10.4 mph - 0.01 in Rain Light Rain
3:19 PM 53.6 °F 53.6 °F 100% 29.96 in 6.0 mi East 10.4 mph - N/A   Overcast
3:21 PM 53.6 °F 53.6 °F 100% 29.96 in 6.0 mi East 11.5 mph - N/A Rain Light Rain
3:32 PM 53.6 °F 53.6 °F 100% 29.95 in 3.0 mi East 11.5 mph - N/A Rain Light Rain
3:55 PM 54.1 °F 53.6 °F 98% 29.97 in 2.5 mi East 10.4 mph - 0.02 in Rain Light Rain
4:22 PM 55.4 °F 53.6 °F 94% 29.93 in 3.0 mi East 8.1 mph - N/A Rain Light Rain
4:36 PM 55.4 °F 55.4 °F 100% 29.92 in 2.5 mi East 12.7 mph - N/A Rain Rain
4:49 PM 55.4 °F 55.4 °F 100% 29.92 in 2.5 mi ENE 8.1 mph - N/A Rain Light Rain
4:59 PM 54.9 °F 54.9 °F 100% 29.94 in 2.5 mi East 9.2 mph - 0.03 in Rain Light Rain
5:28 PM 55.4 °F 55.4 °F 100% 29.89 in 3.0 mi East 13.8 mph - N/A Rain Heavy Rain
5:35 PM 55.4 °F 55.4 °F 100% 29.88 in 3.0 mi ESE 17.3 mph 23.0 mph N/A Rain , Thunderstorm Heavy Thunderstorms and Rain
5:55 PM 57.7 °F 57.7 °F 100% 29.97 in 2.5 mi West 11.5 mph - 0.38 in Rain , Thunderstorm Heavy Thunderstorms and Rain
6:25 PM 55.4 °F 55.4 °F 100% 29.94 in 3.0 mi NNW 11.5 mph 25.3 mph N/A Rain Heavy Rain
6:55 PM 56.8 °F 56.8 °F 100% 29.97 in 2.5 mi NE 8.1 mph - 1.22 in Rain Heavy Rain
7:00 PM 57.2 °F 57.2 °F 100% 29.95 in 1.5 mi NNE 8.1 mph - N/A Rain Heavy Rain
7:09 PM 57.2 °F 57.2 °F 100% 29.94 in 3.0 mi East 8.1 mph - N/A Rain Heavy Rain
7:23 PM 57.2 °F 57.2 °F 100% 29.94 in 3.0 mi NE 3.5 mph - N/A Rain Heavy Rain
7:55 PM 57.2 °F 57.2 °F 100% 29.95 in 4.0 mi ENE 6.9 mph - 0.48 in Rain Rain
8:17 PM 57.2 °F 57.2 °F 100% 29.93 in 5.0 mi East 5.8 mph - N/A Rain Rain
8:47 PM 57.2 °F 57.2 °F 100% 29.92 in 4.0 mi ENE 4.6 mph - N/A Rain Rain
8:55 PM 57.7 °F 57.7 °F 100% 29.94 in 5.0 mi NE 4.6 mph - 0.17 in Rain Light Rain
9:35 PM 57.2 °F 57.2 °F 100% 29.91 in 6.0 mi East 4.6 mph - N/A Rain Light Rain
9:56 PM 57.6 °F 57.6 °F 100% 29.93 in 6.0 mi East 3.5 mph - 0.03 in Rain Light Rain
10:24 PM 57.2 °F 57.2 °F 100% 29.89 in 10.0 mi Calm Calm - N/A   Overcast
10:55 PM 57.6 °F 57.6 °F 100% 29.90 in 10.0 mi Calm Calm - 0.01 in   Overcast
11:19 PM 57.2 °F 57.2 °F 100% 29.87 in 2.0 mi WNW 4.6 mph - N/A   Overcast
11:27 PM 57.2 °F 57.2 °F 100% 29.87 in 0.8 mi WNW 4.6 mph - N/A   Overcast
11:40 PM 57.2 °F 57.2 °F 100% 29.87 in 0.5 mi WNW 3.5 mph - N/A Fog Fog
11:56 PM 57.0 °F 57.0 °F 100% 29.89 in 0.2 mi WNW 10.4 mph - N/A Fog Fog